{"data":{"norad_id":65999,"epoch":"2026-05-24T16:25:09.789312Z","epoch_age_seconds":103075,"freshness":"FRESH","line1":"1 65999U 25231E   26144.68414108 -.00000098  00000+0  55894-4 0  9992","line2":"2 65999  50.0016 259.9482 0000927 149.3089 210.7837 13.29326366 29766","mean_motion":13.29326366,"eccentricity":9.27e-5,"inclination_deg":50.0016,"raan_deg":259.9482,"arg_perigee_deg":149.3089,"mean_anomaly_deg":210.7837,"bstar":5.5894e-5,"rev_number":2976,"period_min":108.32554268317,"perigee_km":1148.6073962883,"apogee_km":1150.0029840703,"semimajor_km":7527.4421901793,"source":"CELESTRAK","updated_at":"2026-05-25T13:38:05.883983Z"}}